Time,TemperatureF,DewpointF,PressureIn,WindDirection,WindDirectionDegrees,WindSpeedMPH,WindSpeedGustMPH,Humidity,HourlyPrecipIn,Conditions,Clouds,dailyrainin,SoftwareType,DateUTC
2013-03-30 00:00:00,45.1,25.0,29.54,North,359,0.0,0.0,45,0.00,CLR,,0.00,WeatherDisplay:10.37,2013-03-30 04:00:00,
2013-03-30 00:05:00,45.2,24.6,29.54,North,359,0.0,0.0,44,0.00,CLR,,0.00,WeatherDisplay:10.37,2013-03-30 04:05:00,
2013-03-30 00:10:00,45.4,24.2,29.54,North,359,0.0,0.0,43,0.00,CLR,,0.00,WeatherDisplay:10.37,2013-03-30 04:10:00,
2013-03-30 00:15:00,45.4,24.2,29.54,North,359,0.0,0.0,43,0.00,CLR,,0.00,WeatherDisplay:10.37,2013-03-30 04:15:00,
2013-03-30 00:20:00,45.4,24.2,29.54,North,359,0.0,0.0,43,0.00,CLR,,0.00,WeatherDisplay:10.37,2013-03-30 04:20:00,
2013-03-30 00:25:00,45.4,23.6,29.54,North,359,0.0,0.0,42,0.00,CLR,,0.00,WeatherDisplay:10.37,2013-03-30 04:25:00,
2013-03-30 00:30:00,45.8,23.4,29.53,North,359,0.0,0.0,41,0.00,CLR,,0.00,WeatherDisplay:10.37,2013-03-30 04:30:00,
2013-03-30 00:35:00,46.5,22.8,29.53,North,359,0.0,0.0,39,0.00,CLR,,0.00,WeatherDisplay:10.37,2013-03-30 04:35:00,
2013-03-30 00:40:00,47.0,22.7,29.53,North,359,0.0,0.0,38,0.00,CLR,,0.00,WeatherDisplay:10.37,2013-03-30 04:40:00,
2013-03-30 00:45:00,47.3,22.3,29.53,North,359,0.0,0.0,37,0.00,CLR,,0.00,WeatherDisplay:10.37,2013-03-30 04:45:00,
2013-03-30 00:50:00,47.6,22.6,29.53,North,359,0.0,0.0,37,0.00,CLR,,0.00,WeatherDisplay:10.37,2013-03-30 04:50:00,
2013-03-30 00:55:00,47.6,22.6,29.53,North,359,0.0,0.0,37,0.00,CLR,,0.00,WeatherDisplay:10.37,2013-03-30 04:55:00,
2013-03-30 01:00:00,47.9,21.5,29.53,North,359,0.0,0.0,35,0.00,CLR,,0.00,WeatherDisplay:10.37,2013-03-30 05:00:00,
2013-03-30 01:05:00,48.0,22.3,29.53,North,359,0.0,0.0,36,0.00,CLR,,0.00,WeatherDisplay:10.37,2013-03-30 05:05:00,
2013-03-30 01:10:00,48.2,21.8,29.53,North,359,0.0,0.0,35,0.00,CLR,,0.00,WeatherDisplay:10.37,2013-03-30 05:10:00,
2013-03-30 01:15:00,48.3,21.9,29.53,North,359,0.0,0.0,35,0.00,CLR,,0.00,WeatherDisplay:10.37,2013-03-30 05:15:00,
2013-03-30 01:20:00,48.5,22.1,29.53,North,359,0.0,0.0,35,0.00,CLR,,0.00,WeatherDisplay:10.37,2013-03-30 05:20:00,
2013-03-30 01:25:00,48.3,21.9,29.53,North,359,0.0,0.0,35,0.00,CLR,,0.00,WeatherDisplay:10.37,2013-03-30 05:25:00,
2013-03-30 01:30:00,48.3,22.5,29.53,North,359,0.0,0.0,36,0.00,CLR,,0.00,WeatherDisplay:10.37,2013-03-30 05:30:00,
2013-03-30 01:35:00,48.2,22.5,29.53,North,359,0.0,0.0,36,0.00,CLR,,0.00,WeatherDisplay:10.37,2013-03-30 05:35:00,
2013-03-30 01:40:00,48.0,22.3,29.53,North,359,0.0,0.0,36,0.00,CLR,,0.00,WeatherDisplay:10.37,2013-03-30 05:40:00,
2013-03-30 01:45:00,47.9,22.8,29.53,North,359,0.0,0.0,37,0.00,CLR,,0.00,WeatherDisplay:10.37,2013-03-30 05:45:00,
2013-03-30 01:50:00,47.6,22.6,29.53,North,359,0.0,0.0,37,0.00,CLR,,0.00,WeatherDisplay:10.37,2013-03-30 05:50:00,
2013-03-30 01:55:00,47.4,21.7,29.53,North,359,0.0,0.0,36,0.00,CLR,,0.00,WeatherDisplay:10.37,2013-03-30 05:55:00,
2013-03-30 02:00:00,47.4,22.4,29.52,North,359,0.0,0.0,37,0.00,CLR,,0.00,WeatherDisplay:10.37,2013-03-30 06:00:00,
2013-03-30 02:05:00,47.3,22.9,29.52,North,359,0.0,0.0,38,0.00,CLR,,0.00,WeatherDisplay:10.37,2013-03-30 06:05:00,
2013-03-30 02:10:00,47.1,22.8,29.52,North,359,0.0,0.0,38,0.00,CLR,,0.00,WeatherDisplay:10.37,2013-03-30 06:10:00,
2013-03-30 02:15:00,47.1,22.1,29.52,North,359,0.0,0.0,37,0.00,CLR,,0.00,WeatherDisplay:10.37,2013-03-30 06:15:00,
2013-03-30 02:20:00,47.1,22.1,29.52,North,359,0.0,0.0,37,0.00,CLR,,0.00,WeatherDisplay:10.37,2013-03-30 06:20:00,
2013-03-30 02:25:00,47.1,22.1,29.52,North,359,0.0,0.0,37,0.00,CLR,,0.00,WeatherDisplay:10.37,2013-03-30 06:25:00,
2013-03-30 02:30:00,47.0,22.0,29.52,North,359,0.0,0.0,37,0.00,CLR,,0.00,WeatherDisplay:10.37,2013-03-30 06:30:00,
2013-03-30 02:35:00,47.0,22.0,29.52,North,359,0.0,0.0,37,0.00,CLR,,0.00,WeatherDisplay:10.37,2013-03-30 06:35:00,
2013-03-30 02:40:00,46.8,22.5,29.52,North,359,0.0,0.0,38,0.00,CLR,,0.00,WeatherDisplay:10.37,2013-03-30 06:40:00,
2013-03-30 02:45:00,46.7,22.4,29.52,North,359,0.0,0.9,38,0.00,CLR,,0.00,WeatherDisplay:10.37,2013-03-30 06:45:00,
2013-03-30 02:50:00,46.8,21.9,29.52,North,359,2.3,2.3,37,0.00,CLR,,0.00,WeatherDisplay:10.37,2013-03-30 06:50:00,
2013-03-30 02:55:00,46.7,22.4,29.52,North,359,3.5,3.5,38,0.00,CLR,,0.00,WeatherDisplay:10.37,2013-03-30 06:55:00,
2013-03-30 03:00:00,46.7,22.4,29.52,North,8,4.6,4.6,38,0.00,CLR,,0.00,WeatherDisplay:10.37,2013-03-30 07:00:00,
2013-03-30 03:05:00,46.7,22.4,29.52,North,10,3.5,3.5,38,0.00,CLR,,0.00,WeatherDisplay:10.37,2013-03-30 07:05:00,
2013-03-30 03:10:00,46.5,22.2,29.51,North,11,2.3,2.3,38,0.00,CLR,,0.00,WeatherDisplay:10.37,2013-03-30 07:10:00,
2013-03-30 03:15:00,46.4,22.1,29.51,NE,48,2.3,2.3,38,0.00,CLR,,0.00,WeatherDisplay:10.37,2013-03-30 07:15:00,
2013-03-30 03:20:00,46.2,22.6,29.51,NE,47,1.1,1.1,39,0.00,CLR,,0.00,WeatherDisplay:10.37,2013-03-30 07:20:00,
2013-03-30 03:25:00,46.1,22.5,29.51,NE,47,2.3,2.3,39,0.00,CLR,,0.00,WeatherDisplay:10.37,2013-03-30 07:25:00,
2013-03-30 03:30:00,46.1,22.5,29.51,NE,47,0.0,0.0,39,0.00,CLR,,0.00,WeatherDisplay:10.37,2013-03-30 07:30:00,
2013-03-30 03:35:00,46.0,22.4,29.51,NE,47,0.0,0.0,39,0.00,CLR,,0.00,WeatherDisplay:10.37,2013-03-30 07:35:00,
2013-03-30 03:40:00,45.8,22.8,29.51,NE,47,0.0,0.0,40,0.00,CLR,,0.00,WeatherDisplay:10.37,2013-03-30 07:40:00,
2013-03-30 03:45:00,45.8,22.8,29.51,NE,47,0.0,0.3,40,0.00,CLR,,0.00,WeatherDisplay:10.37,2013-03-30 07:45:00,
2013-03-30 03:50:00,45.7,22.7,29.51,NE,47,0.0,0.0,40,0.00,CLR,,0.00,WeatherDisplay:10.37,2013-03-30 07:50:00,
2013-03-30 03:55:00,45.5,23.1,29.51,NE,45,1.0,0.0,41,0.00,CLR,,0.00,WeatherDisplay:10.37,2013-03-30 07:55:00,
2013-03-30 04:00:00,45.4,23.0,29.51,NE,45,0.0,0.0,41,0.00,CLR,,0.00,WeatherDisplay:10.37,2013-03-30 08:00:00,
2013-03-30 04:05:00,45.2,23.4,29.51,NE,45,0.0,0.0,42,0.00,CLR,,0.00,WeatherDisplay:10.37,2013-03-30 08:05:00,
2013-03-30 04:10:00,44.9,24.3,29.51,NE,45,0.0,0.0,44,0.00,CLR,,0.00,WeatherDisplay:10.37,2013-03-30 08:10:00,
2013-03-30 04:15:00,44.6,24.0,29.51,NE,45,0.0,0.0,44,0.00,CLR,,0.00,WeatherDisplay:10.37,2013-03-30 08:15:00,
2013-03-30 04:20:00,44.2,24.2,29.51,NE,45,0.0,0.0,45,0.00,CLR,,0.00,WeatherDisplay:10.37,2013-03-30 08:20:00,
2013-03-30 04:25:00,43.9,24.4,29.51,NE,45,0.0,0.0,46,0.00,CLR,,0.00,WeatherDisplay:10.37,2013-03-30 08:25:00,
2013-03-30 04:30:00,43.3,24.4,29.51,NE,45,0.0,0.0,47,0.00,CLR,,0.00,WeatherDisplay:10.37,2013-03-30 08:30:00,
2013-03-30 04:35:00,42.9,25.0,29.51,West,270,2.3,2.3,49,0.00,CLR,,0.00,WeatherDisplay:10.37,2013-03-30 08:35:00,
2013-03-30 04:40:00,42.6,26.2,29.52,West,270,2.3,2.3,52,0.00,CLR,,0.00,WeatherDisplay:10.37,2013-03-30 08:40:00,
2013-03-30 04:45:00,42.1,27.5,29.52,West,270,3.0,3.0,56,0.00,CLR,,0.00,WeatherDisplay:10.37,2013-03-30 08:45:00,
2013-03-30 04:50:00,41.5,27.0,29.52,West,270,0.0,0.2,56,0.00,CLR,,0.00,WeatherDisplay:10.37,2013-03-30 08:50:00,
2013-03-30 04:55:00,41.2,27.1,29.52,West,270,1.1,1.1,57,0.00,CLR,,0.00,WeatherDisplay:10.37,2013-03-30 08:55:00,
2013-03-30 05:00:00,40.9,26.8,29.52,West,270,0.0,0.0,57,0.00,CLR,,0.00,WeatherDisplay:10.37,2013-03-30 09:00:00,
2013-03-30 05:05:00,40.9,26.4,29.52,West,270,3.5,3.5,56,0.00,CLR,,0.00,WeatherDisplay:10.37,2013-03-30 09:05:00,
2013-03-30 05:10:00,41.1,26.6,29.52,West,270,4.6,4.6,56,0.00,CLR,,0.00,WeatherDisplay:10.37,2013-03-30 09:10:00,
2013-03-30 05:15:00,40.9,26.8,29.52,West,270,4.6,4.6,57,0.00,CLR,,0.00,WeatherDisplay:10.37,2013-03-30 09:15:00,
2013-03-30 05:20:00,40.9,26.8,29.52,West,270,2.3,2.3,57,0.00,CLR,,0.00,WeatherDisplay:10.37,2013-03-30 09:20:00,
2013-03-30 05:25:00,40.9,26.8,29.52,West,270,3.5,3.5,57,0.00,CLR,,0.00,WeatherDisplay:10.37,2013-03-30 09:25:00,
2013-03-30 05:30:00,41.2,27.1,29.52,West,270,0.0,0.0,57,0.00,CLR,,0.00,WeatherDisplay:10.37,2013-03-30 09:30:00,
2013-03-30 05:34:00,41.2,27.5,29.52,West,270,1.1,0.0,58,0.00,CLR,,0.00,WeatherDisplay:10.37,2013-03-30 09:34:00,
2013-03-30 05:39:00,41.3,27.6,29.52,West,270,0.0,0.0,58,0.00,CLR,,0.00,WeatherDisplay:10.37,2013-03-30 09:39:00,
2013-03-30 05:44:00,41.3,28.0,29.52,West,270,0.0,0.0,59,0.00,CLR,,0.00,WeatherDisplay:10.37,2013-03-30 09:44:00,
2013-03-30 05:49:00,41.3,28.0,29.52,West,270,0.0,0.0,59,0.00,CLR,,0.00,WeatherDisplay:10.37,2013-03-30 09:49:00,
2013-03-30 05:54:00,41.3,28.0,29.52,West,270,0.0,0.0,59,0.00,CLR,,0.00,WeatherDisplay:10.37,2013-03-30 09:54:00,
2013-03-30 05:59:00,41.3,28.0,29.52,West,270,0.0,0.0,59,0.00,CLR,,0.00,WeatherDisplay:10.37,2013-03-30 09:59:00,
2013-03-30 06:04:00,41.2,27.9,29.52,West,270,0.0,0.0,59,0.00,CLR,,0.00,WeatherDisplay:10.37,2013-03-30 10:04:00,
2013-03-30 06:09:00,41.2,27.9,29.52,West,270,0.0,0.0,59,0.00,CLR,,0.00,WeatherDisplay:10.37,2013-03-30 10:09:00,
2013-03-30 06:14:00,41.1,27.4,29.52,NW,326,2.3,2.3,58,0.00,CLR,,0.00,WeatherDisplay:10.37,2013-03-30 10:14:00,
2013-03-30 06:19:00,41.3,25.9,29.52,NNW,335,3.5,3.5,54,0.00,CLR,,0.00,WeatherDisplay:10.37,2013-03-30 10:19:00,
2013-03-30 06:24:00,41.9,25.1,29.52,North,349,4.6,4.6,51,0.00,CLR,,0.00,WeatherDisplay:10.37,2013-03-30 10:24:00,
2013-03-30 06:29:00,42.3,27.7,29.53,North,349,1.1,0.0,56,0.00,CLR,,0.00,WeatherDisplay:10.37,2013-03-30 10:29:00,
2013-03-30 06:34:00,42.2,28.5,29.53,North,349,0.0,0.0,58,0.00,CLR,,0.00,WeatherDisplay:10.37,2013-03-30 10:34:00,
2013-03-30 06:39:00,41.9,29.0,29.53,North,349,0.0,0.0,60,0.00,CLR,,0.00,WeatherDisplay:10.37,2013-03-30 10:39:00,
2013-03-30 06:44:00,41.6,27.9,29.53,North,349,0.0,0.0,58,0.00,CLR,,0.00,WeatherDisplay:10.37,2013-03-30 10:44:00,
2013-03-30 06:49:00,41.5,27.4,29.53,North,349,0.0,0.0,57,0.00,CLR,,0.00,WeatherDisplay:10.37,2013-03-30 10:49:00,
2013-03-30 06:54:00,41.5,27.4,29.53,North,349,0.0,0.0,57,0.00,CLR,,0.00,WeatherDisplay:10.37,2013-03-30 10:54:00,
2013-03-30 06:59:00,41.5,27.4,29.54,North,349,0.0,0.0,57,0.00,CLR,,0.00,WeatherDisplay:10.37,2013-03-30 10:59:00,
2013-03-30 07:04:00,41.5,26.5,29.54,North,349,2.3,2.3,55,0.00,CLR,,0.00,WeatherDisplay:10.37,2013-03-30 11:04:00,
2013-03-30 07:09:00,41.8,25.4,29.54,North,349,2.3,2.3,52,0.00,CLR,,0.00,WeatherDisplay:10.37,2013-03-30 11:09:00,
2013-03-30 07:14:00,42.1,25.7,29.54,North,349,0.0,0.0,52,0.00,CLR,,0.00,WeatherDisplay:10.37,2013-03-30 11:14:00,
2013-03-30 07:19:00,42.1,26.2,29.54,North,349,0.0,0.0,53,0.00,CLR,,0.00,WeatherDisplay:10.37,2013-03-30 11:19:00,
2013-03-30 07:24:00,42.2,25.3,29.54,North,349,4.6,4.6,51,0.00,CLR,,0.00,WeatherDisplay:10.37,2013-03-30 11:24:00,
2013-03-30 07:29:00,42.5,24.7,29.55,North,349,2.3,2.3,49,0.00,CLR,,0.00,WeatherDisplay:10.37,2013-03-30 11:29:00,
2013-03-30 07:34:00,42.6,24.8,29.55,North,349,2.3,2.3,49,0.00,CLR,,0.00,WeatherDisplay:10.37,2013-03-30 11:34:00,
2013-03-30 07:39:00,42.8,24.4,29.55,North,359,3.5,3.5,48,0.00,CLR,,0.00,WeatherDisplay:10.37,2013-03-30 11:39:00,
2013-03-30 07:44:00,42.9,25.0,29.55,North,0,3.5,3.5,49,0.00,CLR,,0.00,WeatherDisplay:10.37,2013-03-30 11:44:00,
2013-03-30 07:49:00,42.9,26.0,29.55,North,0,2.3,2.3,51,0.00,CLR,,0.00,WeatherDisplay:10.37,2013-03-30 11:49:00,
2013-03-30 07:54:00,42.9,26.0,29.55,North,0,2.3,2.3,51,0.00,CLR,,0.00,WeatherDisplay:10.37,2013-03-30 11:54:00,
2013-03-30 07:59:00,43.1,25.7,29.55,North,357,3.5,3.5,50,0.00,CLR,,0.00,WeatherDisplay:10.37,2013-03-30 11:59:00,
2013-03-30 08:04:00,43.2,26.3,29.55,North,1,3.5,3.5,51,0.00,CLR,,0.00,WeatherDisplay:10.37,2013-03-30 12:04:00,
2013-03-30 08:09:00,43.5,26.6,29.55,North,353,2.3,0.0,51,0.00,CLR,,0.00,WeatherDisplay:10.37,2013-03-30 12:09:00,
2013-03-30 08:14:00,43.6,25.7,29.56,North,353,3.5,3.5,49,0.00,CLR,,0.00,WeatherDisplay:10.37,2013-03-30 12:14:00,
2013-03-30 08:19:00,43.9,26.9,29.56,North,0,0.0,0.0,51,0.00,CLR,,0.00,WeatherDisplay:10.37,2013-03-30 12:19:00,
2013-03-30 08:24:00,44.1,26.1,29.56,North,0,0.0,0.0,49,0.00,CLR,,0.00,WeatherDisplay:10.37,2013-03-30 12:24:00,
2013-03-30 08:29:00,44.2,26.7,29.56,North,0,0.0,0.0,50,0.00,CLR,,0.00,WeatherDisplay:10.37,2013-03-30 12:29:00,
2013-03-30 08:34:00,44.3,26.3,29.56,North,0,3.5,3.5,49,0.00,CLR,,0.00,WeatherDisplay:10.37,2013-03-30 12:34:00,
2013-03-30 08:39:00,44.3,26.8,29.56,North,0,2.3,2.3,50,0.00,CLR,,0.00,WeatherDisplay:10.37,2013-03-30 12:39:00,
2013-03-30 08:44:00,44.3,27.3,29.57,North,0,1.1,0.0,51,0.00,CLR,,0.00,WeatherDisplay:10.37,2013-03-30 12:44:00,
2013-03-30 08:49:00,44.3,27.8,29.57,North,0,0.0,0.0,52,0.00,CLR,,0.00,WeatherDisplay:10.37,2013-03-30 12:49:00,
2013-03-30 08:54:00,44.5,28.9,29.57,NNW,347,1.1,1.1,54,0.00,CLR,,0.00,WeatherDisplay:10.37,2013-03-30 12:54:00,
2013-03-30 08:59:00,44.5,28.4,29.57,NNW,347,0.0,0.0,53,0.00,CLR,,0.00,WeatherDisplay:10.37,2013-03-30 12:59:00,
2013-03-30 09:04:00,44.8,28.7,29.57,NNE,16,3.5,0.0,53,0.00,CLR,,0.00,WeatherDisplay:10.37,2013-03-30 13:04:00,
2013-03-30 09:09:00,45.1,29.0,29.57,North,11,3.5,3.5,53,0.00,CLR,,0.00,WeatherDisplay:10.37,2013-03-30 13:09:00,
2013-03-30 09:14:00,45.1,28.5,29.57,North,6,3.5,3.5,52,0.00,CLR,,0.00,WeatherDisplay:10.37,2013-03-30 13:14:00,
2013-03-30 09:19:00,45.5,28.9,29.57,North,6,1.1,0.0,52,0.00,CLR,,0.00,WeatherDisplay:10.37,2013-03-30 13:19:00,
2013-03-30 09:24:00,46.2,29.1,29.57,North,3,3.5,3.5,51,0.00,CLR,,0.00,WeatherDisplay:10.37,2013-03-30 13:24:00,
2013-03-30 09:29:00,46.8,29.6,29.57,North,3,0.0,0.0,51,0.00,CLR,,0.00,WeatherDisplay:10.37,2013-03-30 13:29:00,
2013-03-30 09:34:00,47.9,30.1,29.57,WSW,258,1.0,1.0,50,0.00,CLR,,0.00,WeatherDisplay:10.37,2013-03-30 13:34:00,
2013-03-30 09:39:00,48.5,29.7,29.57,WSW,258,0.0,0.2,48,0.00,CLR,,0.00,WeatherDisplay:10.37,2013-03-30 13:39:00,
2013-03-30 09:44:00,48.8,28.9,29.57,WNW,285,0.0,0.0,46,0.00,CLR,,0.00,WeatherDisplay:10.37,2013-03-30 13:44:00,
2013-03-30 09:49:00,49.4,29.5,29.57,WNW,287,1.1,0.0,46,0.00,CLR,,0.00,WeatherDisplay:10.37,2013-03-30 13:49:00,
2013-03-30 09:54:00,49.9,28.8,29.57,North,359,2.3,2.3,44,0.00,CLR,,0.00,WeatherDisplay:10.37,2013-03-30 13:54:00,
2013-03-30 09:59:00,50.7,29.6,29.57,North,359,1.1,0.0,44,0.00,CLR,,0.00,WeatherDisplay:10.37,2013-03-30 13:59:00,
2013-03-30 10:04:00,51.0,29.3,29.57,North,359,0.0,0.0,43,0.00,CLR,,0.00,WeatherDisplay:10.37,2013-03-30 14:04:00,
2013-03-30 10:10:00,51.7,29.9,29.57,North,357,0.0,0.0,43,0.00,CLR,,0.00,WeatherDisplay:10.37,2013-03-30 14:10:00,
2013-03-30 10:15:00,52.2,29.8,29.57,North,0,1.1,1.1,42,0.00,CLR,,0.00,WeatherDisplay:10.37,2013-03-30 14:15:00,
2013-03-30 10:20:00,52.6,28.9,29.57,North,357,2.3,2.3,40,0.00,CLR,,0.00,WeatherDisplay:10.37,2013-03-30 14:20:00,
2013-03-30 10:25:00,53.1,29.4,29.57,North,349,0.0,0.0,40,0.00,CLR,,0.00,WeatherDisplay:10.37,2013-03-30 14:25:00,
2013-03-30 10:30:00,53.9,29.5,29.57,North,349,0.0,0.0,39,0.00,CLR,,0.00,WeatherDisplay:10.37,2013-03-30 14:30:00,
2013-03-30 10:35:00,55.1,28.6,29.57,North,11,1.1,0.0,36,0.00,CLR,,0.00,WeatherDisplay:10.37,2013-03-30 14:35:00,
2013-03-30 10:40:00,56.0,28.7,29.57,NNW,336,3.5,3.5,35,0.00,CLR,,0.00,WeatherDisplay:10.37,2013-03-30 14:40:00,
2013-03-30 10:45:00,56.3,25.2,29.57,NNE,18,4.6,4.6,30,0.00,CLR,,0.00,WeatherDisplay:10.37,2013-03-30 14:45:00,
2013-03-30 10:50:00,56.3,24.4,29.57,North,354,0.0,0.0,29,0.00,CLR,,0.00,WeatherDisplay:10.37,2013-03-30 14:50:00,
2013-03-30 10:55:00,56.6,23.8,29.57,WNW,296,5.8,5.8,28,0.00,CLR,,0.00,WeatherDisplay:10.37,2013-03-30 14:55:00,
2013-03-30 11:00:00,56.6,23.8,29.57,North,354,3.5,3.5,28,0.00,CLR,,0.00,WeatherDisplay:10.37,2013-03-30 15:00:00,
2013-03-30 11:05:00,57.2,24.3,29.57,North,1,3.5,3.5,28,0.00,CLR,,0.00,WeatherDisplay:10.37,2013-03-30 15:05:00,
2013-03-30 11:10:00,57.6,23.8,29.57,ESE,107,4.6,4.6,27,0.00,CLR,,0.00,WeatherDisplay:10.37,2013-03-30 15:10:00,
2013-03-30 11:15:00,57.3,23.6,29.56,ESE,103,3.5,3.5,27,0.00,CLR,,0.00,WeatherDisplay:10.37,2013-03-30 15:15:00,
2013-03-30 11:20:00,57.3,24.4,29.56,WNW,298,0.0,0.0,28,0.00,CLR,,0.00,WeatherDisplay:10.37,2013-03-30 15:20:00,
2013-03-30 11:25:00,57.6,23.8,29.56,SE,140,3.5,3.5,27,0.00,CLR,,0.00,WeatherDisplay:10.37,2013-03-30 15:25:00,
2013-03-30 11:30:00,58.3,25.3,29.56,ENE,75,0.0,0.0,28,0.00,CLR,,0.00,WeatherDisplay:10.37,2013-03-30 15:30:00,
2013-03-30 11:35:00,59.0,25.9,29.56,ESE,102,1.1,0.0,28,0.00,CLR,,0.00,WeatherDisplay:10.37,2013-03-30 15:35:00,
2013-03-30 11:40:00,58.7,24.8,29.56,SE,126,0.0,0.0,27,0.00,CLR,,0.00,WeatherDisplay:10.37,2013-03-30 15:40:00,
2013-03-30 11:45:00,58.3,23.5,29.55,SE,126,1.1,1.1,26,0.00,CLR,,0.00,WeatherDisplay:10.37,2013-03-30 15:45:00,
2013-03-30 11:50:00,58.4,23.6,29.55,SE,128,0.0,0.0,26,0.00,CLR,,0.00,WeatherDisplay:10.37,2013-03-30 15:50:00,
2013-03-30 11:55:00,58.7,24.8,29.55,ESE,114,0.0,0.0,27,0.00,CLR,,0.00,WeatherDisplay:10.37,2013-03-30 15:55:00,
2013-03-30 12:00:00,59.2,24.3,29.55,ESE,114,0.0,0.0,26,0.00,CLR,,0.00,WeatherDisplay:10.37,2013-03-30 16:00:00,
2013-03-30 12:05:00,59.3,25.3,29.55,ENE,73,2.3,2.3,27,0.00,CLR,,0.00,WeatherDisplay:10.37,2013-03-30 16:05:00,
2013-03-30 12:10:00,59.8,25.7,29.55,ENE,73,2.3,2.3,27,0.00,CLR,,0.00,WeatherDisplay:10.37,2013-03-30 16:10:00,
2013-03-30 12:15:00,60.5,27.2,29.54,ESE,107,2.3,2.3,28,0.00,CLR,,0.00,WeatherDisplay:10.37,2013-03-30 16:15:00,
2013-03-30 12:20:00,60.1,25.1,29.54,SSE,161,3.5,3.5,26,0.00,CLR,,0.00,WeatherDisplay:10.37,2013-03-30 16:20:00,
2013-03-30 12:25:00,59.8,24.8,29.54,East,99,1.1,1.1,26,0.00,CLR,,0.00,WeatherDisplay:10.37,2013-03-30 16:25:00,
2013-03-30 12:30:00,59.9,24.9,29.53,WSW,241,5.8,5.8,26,0.00,CLR,,0.00,WeatherDisplay:10.37,2013-03-30 16:30:00,
2013-03-30 12:35:00,59.9,25.8,29.53,SSW,203,2.3,2.3,27,0.00,CLR,,0.00,WeatherDisplay:10.37,2013-03-30 16:35:00,
2013-03-30 12:40:00,59.8,24.8,29.53,South,178,3.5,0.0,26,0.00,CLR,,0.00,WeatherDisplay:10.37,2013-03-30 16:40:00,
2013-03-30 12:45:00,59.8,25.7,29.52,SSW,206,3.5,3.5,27,0.00,CLR,,0.00,WeatherDisplay:10.37,2013-03-30 16:45:00,
2013-03-30 12:50:00,59.9,26.7,29.52,SSW,208,2.3,2.3,28,0.00,CLR,,0.00,WeatherDisplay:10.37,2013-03-30 16:50:00,
2013-03-30 12:55:00,60.1,26.0,29.52,WNW,299,1.1,0.0,27,0.00,CLR,,0.00,WeatherDisplay:10.37,2013-03-30 16:55:00,
2013-03-30 13:00:00,60.2,26.1,29.52,SSW,210,3.5,0.0,27,0.00,CLR,,0.00,WeatherDisplay:10.37,2013-03-30 17:00:00,
2013-03-30 13:05:00,60.9,27.5,29.52,ESE,119,0.0,0.1,28,0.00,CLR,,0.00,WeatherDisplay:10.37,2013-03-30 17:05:00,
2013-03-30 13:10:00,60.9,25.7,29.52,NNE,32,6.9,6.9,26,0.00,CLR,,0.00,WeatherDisplay:10.37,2013-03-30 17:10:00,
2013-03-30 13:15:00,60.9,27.5,29.51,NE,37,0.0,0.0,28,0.00,CLR,,0.00,WeatherDisplay:10.37,2013-03-30 17:15:00,
2013-03-30 13:20:00,61.2,26.0,29.51,South,186,2.3,2.3,26,0.00,CLR,,0.00,WeatherDisplay:10.37,2013-03-30 17:20:00,
2013-03-30 13:25:00,61.5,27.2,29.50,ESE,109,2.3,2.3,27,0.00,CLR,,0.00,WeatherDisplay:10.37,2013-03-30 17:25:00,
2013-03-30 13:30:00,61.8,28.3,29.50,West,264,1.1,1.1,28,0.00,CLR,,0.00,WeatherDisplay:10.37,2013-03-30 17:30:00,
2013-03-30 13:35:00,61.8,25.6,29.50,South,175,3.5,3.5,25,0.00,CLR,,0.00,WeatherDisplay:10.37,2013-03-30 17:35:00,
2013-03-30 13:40:00,61.5,26.3,29.49,SW,230,5.8,5.8,26,0.00,CLR,,0.00,WeatherDisplay:10.37,2013-03-30 17:40:00,
2013-03-30 13:45:00,60.9,26.7,29.49,SE,130,3.5,3.5,27,0.00,CLR,,0.00,WeatherDisplay:10.37,2013-03-30 17:45:00,
2013-03-30 13:50:00,61.2,26.0,29.49,SSW,205,0.0,0.0,26,0.00,CLR,,0.00,WeatherDisplay:10.37,2013-03-30 17:50:00,
2013-03-30 13:55:00,61.6,25.4,29.49,SSE,160,1.1,1.1,25,0.00,CLR,,0.00,WeatherDisplay:10.37,2013-03-30 17:55:00,
2013-03-30 14:00:00,61.8,27.4,29.49,North,352,2.3,2.3,27,0.00,CLR,,0.00,WeatherDisplay:10.37,2013-03-30 18:00:00,
2013-03-30 14:05:00,62.0,26.7,29.49,NE,48,5.8,5.8,26,0.00,CLR,,0.00,WeatherDisplay:10.37,2013-03-30 18:05:00,
2013-03-30 14:10:00,62.0,25.7,29.49,North,352,0.0,0.0,25,0.00,CLR,,0.00,WeatherDisplay:10.37,2013-03-30 18:10:00,
2013-03-30 14:15:00,62.0,25.7,29.49,North,4,1.1,1.1,25,0.00,CLR,,0.00,WeatherDisplay:10.37,2013-03-30 18:15:00,
2013-03-30 14:20:00,62.3,26.0,29.49,WSW,251,2.3,2.3,25,0.00,CLR,,0.00,WeatherDisplay:10.37,2013-03-30 18:20:00,
2013-03-30 14:25:00,62.6,27.2,29.49,SW,233,8.1,8.1,26,0.00,CLR,,0.00,WeatherDisplay:10.37,2013-03-30 18:25:00,
2013-03-30 14:30:00,62.0,26.7,29.49,WSW,250,0.0,0.0,26,0.00,CLR,,0.00,WeatherDisplay:10.37,2013-03-30 18:30:00,
2013-03-30 14:35:00,62.4,26.1,29.49,SSE,160,2.3,2.3,25,0.00,CLR,,0.00,WeatherDisplay:10.37,2013-03-30 18:35:00,
2013-03-30 14:40:00,62.3,27.9,29.47,East,83,3.5,0.0,27,0.00,CLR,,0.00,WeatherDisplay:10.37,2013-03-30 18:40:00,
2013-03-30 14:45:00,61.6,27.3,29.47,East,83,3.5,3.5,27,0.00,CLR,,0.00,WeatherDisplay:10.37,2013-03-30 18:45:00,
2013-03-30 14:50:00,62.0,26.7,29.47,East,85,1.1,0.0,26,0.00,CLR,,0.00,WeatherDisplay:10.37,2013-03-30 18:50:00,
2013-03-30 14:55:00,62.0,26.7,29.46,ESE,112,4.6,4.6,26,0.00,CLR,,0.00,WeatherDisplay:10.37,2013-03-30 18:55:00,
2013-03-30 15:00:00,62.6,26.2,29.46,South,175,2.3,2.3,25,0.00,CLR,,0.00,WeatherDisplay:10.37,2013-03-30 19:00:00,
2013-03-30 15:05:00,62.9,26.5,29.46,West,260,3.5,3.5,25,0.00,CLR,,0.00,WeatherDisplay:10.37,2013-03-30 19:05:00,
2013-03-30 15:10:00,63.1,26.7,29.46,SSW,199,4.6,0.0,25,0.00,CLR,,0.00,WeatherDisplay:10.37,2013-03-30 19:10:00,
2013-03-30 15:15:00,63.2,26.8,29.46,WSW,247,3.5,3.5,25,0.00,CLR,,0.00,WeatherDisplay:10.37,2013-03-30 19:15:00,
2013-03-30 15:20:00,63.7,27.2,29.46,South,189,5.8,5.8,25,0.00,CLR,,0.00,WeatherDisplay:10.37,2013-03-30 19:20:00,
2013-03-30 15:25:00,64.0,29.3,29.46,South,178,4.6,4.6,27,0.00,CLR,,0.00,WeatherDisplay:10.37,2013-03-30 19:25:00,
2013-03-30 15:30:00,64.0,28.4,29.46,WSW,239,6.9,6.9,26,0.00,CLR,,0.00,WeatherDisplay:10.37,2013-03-30 19:30:00,
2013-03-30 15:35:00,63.5,26.0,29.46,SSW,198,1.1,1.1,24,0.00,CLR,,0.00,WeatherDisplay:10.37,2013-03-30 19:35:00,
2013-03-30 15:40:00,63.2,26.8,29.45,ESE,119,3.5,3.5,25,0.00,CLR,,0.00,WeatherDisplay:10.37,2013-03-30 19:40:00,
2013-03-30 15:45:00,63.5,27.0,29.45,SSE,164,3.5,3.5,25,0.00,CLR,,0.00,WeatherDisplay:10.37,2013-03-30 19:45:00,
2013-03-30 15:50:00,63.4,25.9,29.45,East,85,2.3,2.3,24,0.00,CLR,,0.00,WeatherDisplay:10.37,2013-03-30 19:50:00,
2013-03-30 15:55:00,63.5,27.0,29.44,ESE,103,3.5,3.5,25,0.00,CLR,,0.00,WeatherDisplay:10.37,2013-03-30 19:55:00,
2013-03-30 16:00:00,63.1,27.6,29.44,ESE,107,2.3,2.3,26,0.00,CLR,,0.00,WeatherDisplay:10.37,2013-03-30 20:00:00,
2013-03-30 16:05:00,63.7,27.2,29.44,ESE,106,0.0,0.0,25,0.00,CLR,,0.00,WeatherDisplay:10.37,2013-03-30 20:05:00,
2013-03-30 16:10:00,63.9,26.4,29.44,ESE,107,2.3,2.3,24,0.00,CLR,,0.00,WeatherDisplay:10.37,2013-03-30 20:10:00,
2013-03-30 16:15:00,64.5,26.9,29.44,WNW,296,6.9,6.9,24,0.00,CLR,,0.00,WeatherDisplay:10.37,2013-03-30 20:15:00,
2013-03-30 16:20:00,64.3,27.7,29.44,WNW,282,6.9,6.9,25,0.00,CLR,,0.00,WeatherDisplay:10.37,2013-03-30 20:20:00,
2013-03-30 16:25:00,64.2,26.6,29.44,SSE,161,2.3,2.3,24,0.00,CLR,,0.00,WeatherDisplay:10.37,2013-03-30 20:25:00,
2013-03-30 16:30:00,64.5,28.8,29.44,West,261,4.0,4.0,26,0.00,CLR,,0.00,WeatherDisplay:10.37,2013-03-30 20:30:00,
2013-03-30 16:35:00,64.3,26.7,29.44,West,265,8.1,8.1,24,0.00,CLR,,0.00,WeatherDisplay:10.37,2013-03-30 20:35:00,
2013-03-30 16:40:00,64.0,26.4,29.43,WNW,289,3.5,3.5,24,0.00,CLR,,0.00,WeatherDisplay:10.37,2013-03-30 20:40:00,
2013-03-30 16:45:00,64.5,26.9,29.43,NNE,14,4.6,4.6,24,0.00,CLR,,0.00,WeatherDisplay:10.37,2013-03-30 20:45:00,
2013-03-30 16:50:00,64.8,27.1,29.43,SE,133,3.5,3.5,24,0.00,CLR,,0.00,WeatherDisplay:10.37,2013-03-30 20:50:00,
2013-03-30 16:55:00,65.0,27.3,29.43,South,185,11.5,11.5,24,0.00,CLR,,0.00,WeatherDisplay:10.37,2013-03-30 20:55:00,
2013-03-30 17:00:00,64.8,28.1,29.43,SE,133,1.1,1.7,25,0.00,CLR,,0.00,WeatherDisplay:10.37,2013-03-30 21:00:00,
2013-03-30 17:05:00,64.3,27.7,29.43,SSE,158,3.5,3.5,25,0.00,CLR,,0.00,WeatherDisplay:10.37,2013-03-30 21:05:00,
2013-03-30 17:10:00,64.5,27.9,29.43,SSE,158,0.0,0.0,25,0.00,CLR,,0.00,WeatherDisplay:10.37,2013-03-30 21:10:00,
2013-03-30 17:15:00,65.0,28.3,29.43,SSW,206,2.3,2.3,25,0.00,CLR,,0.00,WeatherDisplay:10.37,2013-03-30 21:15:00,
2013-03-30 17:20:00,65.5,29.7,29.43,SW,229,0.0,0.1,26,0.00,CLR,,0.00,WeatherDisplay:10.37,2013-03-30 21:20:00,
2013-03-30 17:25:00,65.5,28.7,29.42,South,175,6.9,6.9,25,0.00,CLR,,0.00,WeatherDisplay:10.37,2013-03-30 21:25:00,
2013-03-30 17:30:00,65.0,29.2,29.42,SSE,148,4.0,4.0,26,0.00,CLR,,0.00,WeatherDisplay:10.37,2013-03-30 21:30:00,
2013-03-30 17:35:00,64.3,28.7,29.42,SE,131,0.0,0.0,26,0.00,CLR,,0.00,WeatherDisplay:10.37,2013-03-30 21:35:00,
2013-03-30 17:40:00,64.3,28.7,29.42,SSW,208,2.3,2.3,26,0.00,CLR,,0.00,WeatherDisplay:10.37,2013-03-30 21:40:00,
2013-03-30 17:45:00,64.3,28.7,29.42,SSW,196,0.0,0.0,26,0.00,CLR,,0.00,WeatherDisplay:10.37,2013-03-30 21:45:00,
2013-03-30 17:50:00,64.3,28.7,29.42,SSW,196,0.0,0.0,26,0.00,CLR,,0.00,WeatherDisplay:10.37,2013-03-30 21:50:00,
2013-03-30 17:55:00,64.0,29.3,29.42,South,186,0.0,0.0,27,0.00,CLR,,0.00,WeatherDisplay:10.37,2013-03-30 21:55:00,
2013-03-30 18:00:00,64.3,29.6,29.42,South,184,0.0,0.0,27,0.00,CLR,,0.00,WeatherDisplay:10.37,2013-03-30 22:00:00,
2013-03-30 18:05:00,64.2,29.5,29.42,South,184,0.0,0.1,27,0.00,CLR,,0.00,WeatherDisplay:10.37,2013-03-30 22:05:00,
2013-03-30 18:10:00,64.3,30.5,29.42,South,184,0.0,0.0,28,0.00,CLR,,0.00,WeatherDisplay:10.37,2013-03-30 22:10:00,
2013-03-30 18:15:00,64.5,30.6,29.42,South,184,0.0,0.0,28,0.00,CLR,,0.00,WeatherDisplay:10.37,2013-03-30 22:15:00,
2013-03-30 18:20:00,64.5,30.6,29.42,South,184,0.0,0.0,28,0.00,CLR,,0.00,WeatherDisplay:10.37,2013-03-30 22:20:00,
2013-03-30 18:25:00,64.2,30.4,29.42,ESE,109,0.0,0.0,28,0.00,CLR,,0.00,WeatherDisplay:10.37,2013-03-30 22:25:00,
2013-03-30 18:30:00,63.7,31.7,29.42,ESE,109,0.0,0.1,30,0.00,CLR,,0.00,WeatherDisplay:10.37,2013-03-30 22:30:00,
2013-03-30 18:36:00,63.5,29.8,29.42,WSW,250,0.0,0.3,28,0.00,CLR,,0.00,WeatherDisplay:10.37,2013-03-30 22:36:00,
2013-03-30 18:41:00,63.7,30.0,29.43,WSW,250,1.1,0.0,28,0.00,CLR,,0.00,WeatherDisplay:10.37,2013-03-30 22:41:00,
2013-03-30 18:46:00,63.5,31.5,29.43,WSW,250,0.0,0.0,30,0.00,CLR,,0.00,WeatherDisplay:10.37,2013-03-30 22:46:00,
2013-03-30 18:51:00,63.2,32.0,29.43,WSW,247,0.0,0.0,31,0.00,CLR,,0.00,WeatherDisplay:10.37,2013-03-30 22:51:00,
2013-03-30 18:56:00,63.2,32.0,29.43,WSW,247,0.0,0.0,31,0.00,CLR,,0.00,WeatherDisplay:10.37,2013-03-30 22:56:00,
2013-03-30 19:01:00,63.1,33.5,29.43,WSW,247,0.0,0.0,33,0.00,CLR,,0.00,WeatherDisplay:10.37,2013-03-30 23:01:00,
2013-03-30 19:06:00,62.9,34.8,29.43,SW,215,3.5,3.5,35,0.00,CLR,,0.00,WeatherDisplay:10.37,2013-03-30 23:06:00,
2013-03-30 19:11:00,62.4,35.1,29.43,SSW,213,0.0,0.0,36,0.00,CLR,,0.00,WeatherDisplay:10.37,2013-03-30 23:11:00,
2013-03-30 19:16:00,62.0,34.7,29.43,SSW,213,0.0,0.0,36,0.00,CLR,,0.00,WeatherDisplay:10.37,2013-03-30 23:16:00,
2013-03-30 19:21:00,61.5,34.3,29.43,SSW,213,0.0,0.0,36,0.00,CLR,,0.00,WeatherDisplay:10.37,2013-03-30 23:21:00,
2013-03-30 19:26:00,61.2,35.4,29.43,SSW,213,0.0,0.0,38,0.00,CLR,,0.00,WeatherDisplay:10.37,2013-03-30 23:26:00,
2013-03-30 19:31:00,60.9,35.1,29.43,SSW,213,0.0,0.0,38,0.00,CLR,,0.00,WeatherDisplay:10.37,2013-03-30 23:31:00,
2013-03-30 19:36:00,60.2,35.8,29.43,SSW,213,0.0,0.0,40,0.00,CLR,,0.00,WeatherDisplay:10.37,2013-03-30 23:36:00,
2013-03-30 19:41:00,59.5,36.4,29.44,SSW,213,0.0,0.0,42,0.00,CLR,,0.00,WeatherDisplay:10.37,2013-03-30 23:41:00,
2013-03-30 19:46:00,59.0,36.5,29.44,SSW,213,0.0,0.0,43,0.00,CLR,,0.00,WeatherDisplay:10.37,2013-03-30 23:46:00,
2013-03-30 19:51:00,58.9,36.4,29.44,SSW,213,0.0,0.0,43,0.00,CLR,,0.00,WeatherDisplay:10.37,2013-03-30 23:51:00,
2013-03-30 19:56:00,58.4,36.6,29.44,SSW,213,0.0,0.0,44,0.00,CLR,,0.00,WeatherDisplay:10.37,2013-03-30 23:56:00,
2013-03-30 20:01:00,58.3,36.5,29.44,SSW,213,0.0,0.0,44,0.00,CLR,,0.00,WeatherDisplay:10.37,2013-03-31 00:01:00,
2013-03-30 20:06:00,58.0,36.2,29.44,SSW,213,0.0,0.0,44,0.00,CLR,,0.00,WeatherDisplay:10.37,2013-03-31 00:06:00,
2013-03-30 20:11:00,57.8,36.6,29.44,SSW,213,0.0,0.0,45,0.00,CLR,,0.00,WeatherDisplay:10.37,2013-03-31 00:11:00,
2013-03-30 20:16:00,57.5,36.9,29.44,SSW,213,0.0,0.0,46,0.00,CLR,,0.00,WeatherDisplay:10.37,2013-03-31 00:16:00,
2013-03-30 20:22:00,57.3,36.7,29.44,SSW,213,0.0,0.0,46,0.00,CLR,,0.00,WeatherDisplay:10.37,2013-03-31 00:22:00,
2013-03-30 20:27:00,57.2,37.1,29.44,SSW,213,0.0,0.0,47,0.00,CLR,,0.00,WeatherDisplay:10.37,2013-03-31 00:27:00,
2013-03-30 20:32:00,57.0,37.5,29.44,SSW,213,0.0,0.0,48,0.00,CLR,,0.00,WeatherDisplay:10.37,2013-03-31 00:32:00,
2013-03-30 20:37:00,56.9,37.4,29.44,SSW,213,0.0,0.0,48,0.00,CLR,,0.00,WeatherDisplay:10.37,2013-03-31 00:37:00,
2013-03-30 20:42:00,56.7,37.2,29.44,SSW,213,0.0,0.0,48,0.00,CLR,,0.00,WeatherDisplay:10.37,2013-03-31 00:42:00,
2013-03-30 20:47:00,56.7,37.2,29.44,SSW,213,0.0,0.0,48,0.00,CLR,,0.00,WeatherDisplay:10.37,2013-03-31 00:47:00,
2013-03-30 20:52:00,56.5,37.6,29.44,SSW,213,0.0,0.0,49,0.00,CLR,,0.00,WeatherDisplay:10.37,2013-03-31 00:52:00,
2013-03-30 20:57:00,56.5,37.6,29.44,SSW,213,0.0,0.0,49,0.00,CLR,,0.00,WeatherDisplay:10.37,2013-03-31 00:57:00,
2013-03-30 21:02:00,56.2,37.3,29.44,SSW,213,0.0,0.0,49,0.00,CLR,,0.00,WeatherDisplay:10.37,2013-03-31 01:02:00,
2013-03-30 21:07:00,56.0,37.6,29.44,SSW,213,0.0,0.0,50,0.00,CLR,,0.00,WeatherDisplay:10.37,2013-03-31 01:07:00,
2013-03-30 21:12:00,56.0,37.6,29.45,SSW,213,0.0,0.0,50,0.00,CLR,,0.00,WeatherDisplay:10.37,2013-03-31 01:12:00,
2013-03-30 21:17:00,55.9,38.0,29.45,SSW,213,0.0,0.0,51,0.00,CLR,,0.00,WeatherDisplay:10.37,2013-03-31 01:17:00,
2013-03-30 21:22:00,55.7,38.3,29.45,SSW,213,0.0,0.0,52,0.00,CLR,,0.00,WeatherDisplay:10.37,2013-03-31 01:22:00,
2013-03-30 21:27:00,55.4,38.1,29.45,SSW,213,0.0,0.0,52,0.00,CLR,,0.00,WeatherDisplay:10.37,2013-03-31 01:27:00,
2013-03-30 21:32:00,55.3,38.4,29.45,SSW,213,0.0,0.0,53,0.00,CLR,,0.00,WeatherDisplay:10.37,2013-03-31 01:32:00,
2013-03-30 21:37:00,55.6,38.7,29.45,SSW,213,0.0,0.0,53,0.00,CLR,,0.00,WeatherDisplay:10.37,2013-03-31 01:37:00,
2013-03-30 21:42:00,55.6,38.7,29.45,SSW,213,0.0,0.0,53,0.00,CLR,,0.00,WeatherDisplay:10.37,2013-03-31 01:42:00,
2013-03-30 21:47:00,55.7,39.3,29.45,SSW,213,0.0,0.0,54,0.00,CLR,,0.00,WeatherDisplay:10.37,2013-03-31 01:47:00,
2013-03-30 21:52:00,55.6,39.2,29.45,SSW,213,0.0,0.0,54,0.00,CLR,,0.00,WeatherDisplay:10.37,2013-03-31 01:52:00,
2013-03-30 21:57:00,55.6,39.2,29.44,SSW,213,0.0,0.2,54,0.00,CLR,,0.00,WeatherDisplay:10.37,2013-03-31 01:57:00,
2013-03-30 22:02:00,55.7,39.3,29.44,SSW,213,1.1,0.0,54,0.00,CLR,,0.00,WeatherDisplay:10.37,2013-03-31 02:02:00,
2013-03-30 22:07:00,56.0,39.6,29.44,SSW,213,1.1,0.0,54,0.00,CLR,,0.00,WeatherDisplay:10.37,2013-03-31 02:07:00,
2013-03-30 22:13:00,56.0,39.6,29.44,SSW,213,0.0,0.0,54,0.00,CLR,,0.00,WeatherDisplay:10.37,2013-03-31 02:13:00,
2013-03-30 22:18:00,55.7,39.8,29.44,SSW,213,0.0,1.0,55,0.00,CLR,,0.00,WeatherDisplay:10.37,2013-03-31 02:18:00,
2013-03-30 22:23:00,55.7,39.8,29.44,SSW,213,1.1,0.0,55,0.00,CLR,,0.00,WeatherDisplay:10.37,2013-03-31 02:23:00,
2013-03-30 22:28:00,55.7,40.2,29.44,SSW,213,1.1,1.1,56,0.00,CLR,,0.00,WeatherDisplay:10.37,2013-03-31 02:28:00,
2013-03-30 22:33:00,55.7,40.2,29.44,SSW,210,1.1,0.0,56,0.00,CLR,,0.00,WeatherDisplay:10.37,2013-03-31 02:33:00,
2013-03-30 22:38:00,55.7,40.2,29.44,SSW,210,0.0,0.2,56,0.00,CLR,,0.00,WeatherDisplay:10.37,2013-03-31 02:38:00,
2013-03-30 22:43:00,55.7,40.2,29.44,SSW,210,0.0,0.0,56,0.00,CLR,,0.00,WeatherDisplay:10.37,2013-03-31 02:43:00,
2013-03-30 22:48:00,55.4,40.4,29.44,South,191,0.0,0.0,57,0.00,CLR,,0.00,WeatherDisplay:10.37,2013-03-31 02:48:00,
2013-03-30 22:53:00,55.4,40.9,29.44,SSW,192,0.0,0.0,58,0.00,CLR,,0.00,WeatherDisplay:10.37,2013-03-31 02:53:00,
2013-03-30 22:58:00,55.3,40.8,29.44,SSW,192,0.0,0.0,58,0.00,CLR,,0.00,WeatherDisplay:10.37,2013-03-31 02:58:00,
2013-03-30 23:03:00,55.3,41.2,29.44,SSW,192,0.0,0.0,59,0.00,CLR,,0.00,WeatherDisplay:10.37,2013-03-31 03:03:00,
2013-03-30 23:08:00,55.3,41.2,29.44,SSW,192,2.3,2.3,59,0.00,CLR,,0.00,WeatherDisplay:10.37,2013-03-31 03:08:00,
2013-03-30 23:14:00,55.3,41.2,29.44,South,189,2.3,0.0,59,0.00,CLR,,0.00,WeatherDisplay:10.37,2013-03-31 03:14:00,
2013-03-30 23:19:00,55.1,41.5,29.44,South,175,2.3,2.3,60,0.00,CLR,,0.00,WeatherDisplay:10.37,2013-03-31 03:19:00,
2013-03-30 23:24:00,55.0,41.8,29.44,South,189,6.9,6.9,61,0.00,CLR,,0.00,WeatherDisplay:10.37,2013-03-31 03:24:00,
2013-03-30 23:29:00,55.1,41.9,29.44,South,178,2.3,2.3,61,0.00,CLR,,0.00,WeatherDisplay:10.37,2013-03-31 03:29:00,
2013-03-30 23:34:00,55.1,41.9,29.44,South,178,2.3,2.3,61,0.00,CLR,,0.00,WeatherDisplay:10.37,2013-03-31 03:34:00,
2013-03-30 23:39:00,55.0,41.8,29.44,South,184,0.0,0.0,61,0.00,CLR,,0.00,WeatherDisplay:10.37,2013-03-31 03:39:00,
2013-03-30 23:44:00,54.8,42.0,29.44,South,182,2.3,2.3,62,0.00,CLR,,0.00,WeatherDisplay:10.37,2013-03-31 03:44:00,
2013-03-30 23:49:00,54.8,42.0,29.44,South,182,3.5,3.5,62,0.00,CLR,,0.00,WeatherDisplay:10.37,2013-03-31 03:49:00,
2013-03-30 23:54:00,54.7,42.3,29.44,South,182,2.3,2.3,63,0.00,CLR,,0.00,WeatherDisplay:10.37,2013-03-31 03:54:00,
2013-03-30 23:59:00,54.4,42.1,29.44,South,179,2.3,2.3,63,0.00,CLR,,0.00,WeatherDisplay:10.37,2013-03-31 03:59:00,